Location: Spor
(46.2167°N, 11.0500°E)
Time: 13:04:44
(UTC+00:00)

CZ-4B R/B - Pass Details

Date: 07 June 2020
Orbit: 703 x 802 km, 98.8° (Epoch: 11 July)

Event Time Altitude Azimuth Distance (km) Brightness Sun altitude
Rises 00:53:38 0° 18° (NNE) 3,302 8.5 -17.5°
Reaches altitude 10° 00:56:01 10° 23° (NNE) 2,377 7.4 -17.3°
Maximum altitude 01:01:12 56° 101° (E) 952 4.0 -16.9°
Enters shadow 01:04:34 21° 173° (S) 1,715 4.8 -16.6°
